Weather History for KSTP - May, 2013

Change the Weather History Date:

Saturday, May 4, 2013

  Actual Average Record
Temperature  
Mean Temperature 42 °F -  
Max Temperature 51 °F 65 °F 91 °F (2000)
Min Temperature 33 °F 43 °F 30 °F (2005)
Degree Days  
Heating Degree Days 23    
Moisture  
Dew Point 35 °F    
Average Humidity 81    
Maximum Humidity 93    
Minimum Humidity 66    
Precipitation  
Precipitation 0.09 in - - ()
Sea Level Pressure  
Sea Level Pressure 30.16 in    
Wind  
Wind Speed 8 mph (North)    
Max Wind Speed 14 mph    
Max Gust Speed 18 mph    
Visibility 10 miles    
Events Rain    
Averages and records for this station are not official NWS values.
T = Trace of Precipitation, MM = Missing Value Source: NWS Daily Summary

Daily Weather History Graph

Daily Weather History Graph

Search for Another Location

Airport or City:

Trip Planner

Search our weather history database for the weather conditions in past years. The results will help you decide how hot, cold, wet, or windy it might be!

Date:

Astronomy

May. 04, 2013 Rise Set
Actual Time 5:57 AM CDT 8:21 PM CDT
Civil Twilight 5:24 AM CDT 8:54 PM CDT
Nautical Twilight 4:43 AM CDT 9:35 PM CDT
Astronomical Twilight 3:57 AM CDT 10:21 PM CDT
Moon 3:09 AM CDT (5/4) 3:07 PM CDT (5/4)
Length of Visible Light 15h 30m
Length of Day
14h 24m
Waning Crescent, 27% of the Moon is Illuminated
May 4
Waning Crescent
May 9
New
May 17
First Quarter
May 24
Full
May 31
Last Quarter

Hourly Weather History & Observations

Time (CDT) Temp. Windchill Dew Point Humidity Pressure Visibility Wind Dir Wind Speed Gust Speed Precip Events Conditions
12:53 AM 34.0 °F 28.0 °F 30.0 °F 85% 30.18 in 10.0 mi North 6.9 mph - 0.00 in   Overcast
1:48 AM 33.8 °F 27.7 °F 30.2 °F 87% 30.15 in 10.0 mi North 6.9 mph - 0.00 in   Overcast
1:53 AM 34.0 °F 27.2 °F 30.9 °F 89% 30.17 in 10.0 mi North 8.1 mph - 0.00 in   Overcast
2:53 AM 34.0 °F 28.0 °F 30.9 °F 89% 30.16 in 10.0 mi NNE 6.9 mph - N/A   Overcast
3:53 AM 34.0 °F 28.0 °F 30.9 °F 89% 30.16 in 4.0 mi North 6.9 mph - 0.00 in Rain Light Rain
4:53 AM 34.0 °F 28.0 °F 30.9 °F 89% 30.15 in 9.0 mi North 6.9 mph - 0.03 in Rain Light Rain
5:53 AM 34.0 °F 29.8 °F 30.9 °F 89% 30.15 in 8.0 mi NNW 4.6 mph - 0.00 in Rain Light Rain
6:49 AM 33.8 °F 28.6 °F 32.0 °F 93% 30.13 in 10.0 mi North 5.8 mph - 0.03 in Rain Light Rain
6:53 AM 34.0 °F 28.0 °F 30.9 °F 89% 30.15 in 7.0 mi North 6.9 mph - 0.04 in Rain Light Rain
7:10 AM 35.6 °F 30.7 °F 30.2 °F 81% 30.14 in 8.0 mi NNW 5.8 mph - N/A Rain Light Rain
7:53 AM 35.1 °F 28.6 °F 32.0 °F 89% 30.17 in 10.0 mi North 8.1 mph - 0.02 in Rain Light Rain
8:53 AM 36.0 °F 30.3 °F 32.0 °F 86% 30.16 in 10.0 mi North 6.9 mph - 0.00 in   Overcast
9:53 AM 37.9 °F 31.5 °F 34.0 °F 86% 30.17 in 10.0 mi NNE 9.2 mph - N/A   Overcast
10:53 AM 39.9 °F 33.9 °F 36.0 °F 86% 30.16 in 10.0 mi North 9.2 mph - N/A   Overcast
11:53 AM 41.0 °F 35.8 °F 36.0 °F 82% 30.17 in 10.0 mi North 8.1 mph - N/A   Overcast
12:53 PM 44.1 °F 40.8 °F 37.9 °F 79% 30.17 in 10.0 mi North 5.8 mph - N/A   Overcast
1:53 PM 45.0 °F 40.6 °F 37.9 °F 76% 30.17 in 10.0 mi North 8.1 mph - N/A   Overcast
2:13 PM 46.4 °F 42.9 °F 39.2 °F 76% 30.15 in 10.0 mi North 6.9 mph - N/A   Overcast
2:53 PM 48.9 °F - 39.9 °F 71% 30.16 in 10.0 mi NNW 8.1 mph - N/A   Overcast
3:53 PM 48.0 °F - 39.9 °F 74% 30.16 in 10.0 mi NNW 9.2 mph - N/A   Overcast
4:26 PM 50.0 °F - 39.2 °F 66% 30.14 in 10.0 mi NNW 11.5 mph - N/A   Scattered Clouds
4:53 PM 51.1 °F - 41.0 °F 68% 30.14 in 10.0 mi North 10.4 mph - N/A   Clear
5:53 PM 51.1 °F - 41.0 °F 68% 30.15 in 10.0 mi NNW 10.4 mph - N/A   Clear
6:53 PM 48.9 °F - 39.9 °F 71% 30.16 in 10.0 mi North 11.5 mph - N/A   Partly Cloudy
7:38 PM 46.4 °F 41.5 °F 39.2 °F 76% 30.16 in 10.0 mi NNW 10.4 mph - N/A   Mostly Cloudy
7:53 PM 46.9 °F - 39.9 °F 77% 30.17 in 10.0 mi North 13.8 mph - N/A   Overcast
8:53 PM 45.0 °F 40.1 °F 39.0 °F 80% 30.19 in 10.0 mi North 9.2 mph 18.4 mph N/A   Overcast
9:53 PM 43.0 °F 37.7 °F 37.0 °F 80% 30.19 in 10.0 mi North 9.2 mph - N/A   Overcast
10:53 PM 42.1 °F 35.7 °F 36.0 °F 79% 30.20 in 10.0 mi NNE 11.5 mph - N/A   Overcast
11:53 PM 41.0 °F 37.1 °F 36.0 °F 82% 30.20 in 10.0 mi North 5.8 mph - N/A   Overcast